Location: Dal�� Lhota
(48.7500°N, 14.0167°E)
Time: 00:26:50
(UTC+00:00)

Vanguard 3 - Pass Details

Date: 06 August 2021
Orbit: 510 x 3260 km, 33.3° (Epoch: 19 September)

Event Time Altitude Azimuth Distance (km) Brightness Sun altitude
Rises 14:06:35 0° 203° (SSW) 4,481 11.5 41.8°
Reaches altitude 10° 14:09:58 10° 189° (S) 3,894 11.1 41.3°
Maximum altitude 14:18:01 24° 141° (SE) 3,715 10.6 40.1°
Drops below altitude 10° 14:29:18 10° 97° (E) 5,635 11.1 38.4°
Sets 14:35:35 0° 87° (E) 6,981 11.4 37.4°
